User: anonymous   Login
Location: Cormont
(50.5693°N, 1.7416°E)
Time: 08:47:28
(UTC+00:00)
Language:

STARLINK-81 - Orbit

View from above orbital plane
View from above orbital plane
View from above satellite
View from above satellite

Ground track
Ground track

The orbit data is extracted from the following two-line orbital elements,

1 44292U 19029BK  19349.25001157 -.00007803  00000-0 -43112-3 0  9993
2 44292  53.0063 330.9216 0000994  95.0365  99.0810 15.12122502 32120
Epoch (UTC): 15 December 2019 06:00:01
Eccentricity: 0.0000994
inclination: 53.0063°
perigee height: 529 km
apogee height: 530 km
right ascension of ascending node: 330.9216°
argument of perigee: 95.0365°
revolutions per day: 15.12122502
mean anomaly at epoch: 99.0810°
orbit number at epoch: 3212

The dashed part of the orbit path shows where the satellite is in the earth's shadow,  

DLR